DW1084 Weather Reports


time (UTC)temp
C
wind
direction
speed
KPH
gust
KPH
rain 1hr
cm
rain 24hr
cm
rain mn
cm
humidity
%
barometer
mb
20260506221507 20 64 4.8 0.0 0.00 0.00 0.30 77 1006.0
20260506220041 20 131 6.4 0.0 0.00 0.00 0.30 75 1005.8
20260506214521 20 137 6.4 0.0 0.00 0.00 0.30 76 1005.7
20260506213055 20 125 6.4 0.0 0.00 0.00 0.30 76 1005.7
20260506213002 21 170 6.4 0.0 0.00 0.00 0.30 76 1005.7
20260506211535 20 115 3.2 0.0 0.00 0.00 0.30 77 1005.5
20260506210020 20 107 4.8 0.0 0.00 0.00 0.30 74 1005.6
20260506204559 21 178 3.2 0.0 0.00 0.00 0.30 75 1005.5
20260506203032 20 103 4.8 0.0 0.00 0.00 0.30 76 1005.5
20260506201507 20 95 3.2 0.0 0.00 0.00 0.30 78 1005.4
20260506200043 20 125 3.2 0.0 0.00 0.00 0.30 79 1005.5
20260506194519 20 115 4.8 0.0 0.00 0.00 0.30 81 1005.6
20260506193059 19 145 3.2 0.0 0.00 0.00 0.30 81 1005.7
20260506191537 18 169 4.8 0.0 0.00 0.00 0.30 85 1005.8
20260506190012 17 135 3.2 0.0 0.00 0.00 0.30 86 1006.0
20260506184551 17 139 4.8 0.0 0.00 0.00 0.30 86 1006.3
20260506183027 17 182 4.8 0.0 0.00 0.00 0.30 86 1006.1
20260506181508 17 101 4.8 0.0 0.00 0.00 0.30 87 1006.4
20260506180048 16 111 4.8 0.0 0.00 0.00 0.30 87 1006.6
20260506174521 16 124 6.4 0.0 0.00 0.00 0.30 88 1006.5
20260506173054 16 161 6.4 0.0 0.00 0.00 0.30 89 1006.7
20260506173000 16 134 6.4 0.0 0.00 0.00 0.30 89 1006.6
20260506171550 16 128 8.0 0.0 0.00 0.00 0.30 88 1006.7
20260506170016 16 132 4.8 0.0 0.00 0.00 0.30 88 1006.5
20260506164555 16 144 6.4 0.0 0.00 0.00 0.30 88 1006.8
20260506163029 16 117 6.4 0.0 0.00 0.00 0.30 89 1006.9
20260506161505 16 129 8.0 0.0 0.00 0.00 0.30 89 1007.1
20260506160043 16 134 8.0 0.0 0.00 0.00 0.30 90 1007.0
20260506154519 16 139 6.4 0.0 0.00 0.00 0.25 88 1007.8
20260506153056 16 132 4.8 0.0 0.00 0.00 0.20 88 1008.0
20260506151538 16 136 4.8 0.0 0.00 0.00 0.18 87 1008.0
20260506150012 16 132 6.4 0.0 0.00 0.00 0.15 86 1007.7
20260506144600 16 93 4.8 0.0 0.00 0.00 0.10 85 1007.8
20260506143026 17 129 4.8 0.0 0.00 0.00 0.05 83 1008.0
20260506141507 17 122 8.0 0.0 0.00 0.00 0.03 82 1007.9
20260506140055 17 125 4.8 0.0 0.00 0.00 0.00 78 1008.0
20260506134520 18 129 6.4 0.0 0.00 0.00 0.00 73 1007.9
20260506133102 18 119 8.0 0.0 0.00 0.00 0.00 75 1007.6
20260506133000 18 130 8.0 0.0 0.00 0.00 0.00 75 1007.6
20260506131536 18 136 6.4 0.0 0.00 0.00 0.00 75 1007.7
20260506130015 18 130 6.4 0.0 0.00 0.00 0.00 74 1007.8
20260506124549 18 146 6.4 0.0 0.00 0.00 0.00 73 1007.9
20260506123029 18 93 8.0 0.0 0.00 0.00 0.00 72 1007.9
20260506121504 18 118 8.0 0.0 0.00 0.00 0.00 72 1007.9
20260506120047 18 121 8.0 0.0 0.00 0.00 0.00 73 1007.6
20260506114518 18 133 6.4 0.0 0.00 0.00 0.00 73 1007.5
20260506113100 18 168 6.4 0.0 0.00 0.00 0.00 74 1007.6
20260506111536 18 114 6.4 0.0 0.00 0.00 0.00 74 1007.3
20260506110013 18 120 8.0 0.0 0.00 0.00 0.00 74 1007.2
20260506104557 18 124 8.0 0.0 0.00 0.00 0.00 74 1007.2
20260506103031 17 118 8.0 0.0 0.00 0.00 0.00 74 1007.3
20260506101506 17 117 6.4 0.0 0.00 0.00 0.00 75 1007.2
20260506100041 17 119 8.0 0.0 0.00 0.00 0.00 75 1007.1
20260506094520 17 113 8.0 0.0 0.00 0.00 0.00 74 1007.1
20260506093055 17 138 8.0 0.0 0.00 0.00 0.00 74 1007.2
20260506091534 18 134 8.0 0.0 0.00 0.00 0.00 72 1007.3
20260506090014 18 128 9.7 0.0 0.00 0.00 0.00 71 1007.4
20260506084553 18 109 8.0 0.0 0.00 0.00 0.00 70 1007.5
20260506083032 19 157 6.4 0.0 0.00 0.00 0.00 70 1007.4
20260506081504 19 122 9.7 0.0 0.00 0.00 0.00 70 1007.3
20260506073055 18 195 8.0 0.0 0.00 0.00 0.00 71 1007.6
20260506071534 18 128 6.4 0.0 0.00 0.00 0.00 70 1007.7
20260506061504 18 126 6.4 0.0 0.00 0.00 0.00 68 1008.3
20260506044542 19 126 6.4 0.0 0.00 0.00 0.00 62 1008.7
20260506043022 19 125 6.4 0.0 0.00 0.00 0.00 61 1008.6
20260506041556 19 139 6.4 0.0 0.00 0.00 0.00 61 1008.6
20260506040040 19 139 6.4 0.0 0.00 0.00 0.00 61 1008.7
20260506034600 19 130 6.4 0.0 0.00 0.00 0.00 61 1008.7
20260506034501 19 128 6.4 0.0 0.00 0.00 0.00 61 1008.6
20260506033042 19 134 6.4 0.0 0.00 0.00 0.00 61 1008.5
20260506031519 20 120 6.4 0.0 0.00 0.00 0.00 60 1008.5
20260506030057 19 119 6.4 0.0 0.00 0.00 0.00 61 1008.3
20260506024535 19 130 4.8 0.0 0.00 0.00 0.00 61 1008.5
20260506023009 20 129 4.8 0.0 0.00 0.00 0.00 59 1008.8
20260506021555 20 119 4.8 0.0 0.00 0.00 0.00 58 1008.7
20260506020023 20 125 4.8 0.0 0.00 0.00 0.00 56 1008.4
20260506014503 20 125 4.8 0.0 0.00 0.00 0.00 56 1008.4
20260506013038 21 132 6.4 0.0 0.00 0.00 0.00 54 1008.4
20260506011517 21 124 8.0 0.0 0.00 0.00 0.00 53 1008.1
20260506010114 21 121 6.4 0.0 0.00 0.00 0.00 52 1008.0
20260506004531 22 133 6.4 0.0 0.00 0.00 0.00 51 1007.7
20260506003011 22 126 6.4 0.0 0.00 0.00 0.00 50 1007.6
20260506001547 22 129 8.0 0.0 0.00 0.00 0.00 48 1007.6
20260506000025 23 130 6.4 0.0 0.00 0.00 0.00 46 1007.2
20260505234610 23 126 4.8 0.0 0.00 0.00 0.00 44 1007.0
20260505234503 23 132 4.8 0.0 0.00 0.00 0.00 44 1007.0
20260505233041 23 136 4.8 0.0 0.00 0.00 0.00 43 1007.0
20260505231519 24 118 4.8 0.0 0.00 0.00 0.00 41 1007.1
20260505230053 25 114 4.8 0.0 0.00 0.00 0.00 40 1006.9
20260505224535 26 134 4.8 0.0 0.00 0.00 0.00 39 1006.9
20260505223010 26 123 4.8 0.0 0.00 0.00 0.00 37 1007.0